Regional Weather Roundup
Issued by NWS

Home | Current Version | Previous Version | Text Only | Print | Product List | Glossary On
Versions: 1 2 3 4 5 6 7 8 9 10 11 12 13 14 15 16 17 18 19 20 21 22 23 24 25 26 27 28 29 30 31 32 33 34 35 36 37 38 39 40 41 42 43 44 45 46 47 48 49 50
000
ASUS43 KDMX 311203
RWRIA

WEATHER ROUNDUP FOR IOWA
NATIONAL WEATHER SERVICE DES MOINES IA
700 AM CDT TUE MAY 31 2016

NOTE: "FAIR" INDICATES FEW OR NO CLOUDS BELOW 12,000 FEET WITH NO
SIGNIFICANT WEATHER AND/OR OBSTRUCTIONS TO VISIBILITY.

* - THESE STATIONS ARE NOT NWS STATIONS...THUS NOT UNDER NWS
QUALITY CONTROL.  THEY ALSO DO NOT REPORT WEATHER SUCH
AS PRECIPITATION OR FOG.

IAZ001>003-012>014-020>022-031>034-043>046-311300-
   NORTHWEST IOWA

CITY           SKY/WX    TMP DP  RH WIND       PRES   REMARKS
CARROLL *      CLOUDY    66  63  88 SW10      29.91R
CHEROKEE *     PTSUNNY   62  62 100 SW5       29.92R
DENISON *      CLOUDY    64  61  88 CALM      29.89S
LE MARS *      LGT RAIN  63  61  94 W5        29.92S
ORANGE CITY *  LGT RAIN  63  61  94 W12       29.91S
SHELDON *      CLOUDY    61  61 100 SW9       29.90R
SIOUX CITY     LGT RAIN  63  60  90 N7        29.88F
6HR MIN TEMP:  62; 6HR MAX TEMP:  72; 6HR PCP:  0.13;

SPENCER        LGT RAIN  62  60  93 S6        29.89R
6HR MIN TEMP:  61; 6HR MAX TEMP:  66; 6HR PCP:  0.35;

STORM LAKE *   PTSUNNY   63  61  94 W12       29.91R
$$

IAZ055>058-069>071-079>083-090>094-311300-
   SOUTHWEST IOWA

CITY           SKY/WX    TMP DP  RH WIND       PRES   REMARKS
ATLANTIC *     PTSUNNY   64  61  88 SW6       29.92R
AUDUBON *      MOSUNNY   64  61  88 S5        29.93R
CLARINDA *       N/A     64  61  88 MISG      29.93S
COUNCIL BLFS * PTSUNNY   64  63  94 SE6       29.91R
CRESTON *      MOSUNNY   63  61  94 S8        29.95S
HARLAN  *      CLOUDY    64  63  94 S5        29.95R
LAMONI         CLOUDY    61  59  93 S5        29.96S
6HR MIN TEMP:  60; 6HR MAX TEMP:  63;

RED OAK *      CLOUDY    64  61  88 S9        29.91S
SHENANDOAH *   CLOUDY    64  64 100 S8        29.92R FOG
$$

IAZ047>049-059>061-072>074-084-311300-
   CENTRAL IOWA

CITY           SKY/WX    TMP DP  RH WIND       PRES   REMARKS
AMES           CLOUDY    64  61  90 S12       29.93R
6HR MIN TEMP:  63; 6HR MAX TEMP:  64;

ANKENY *       CLOUDY    66  61  82 S6        29.94S
BOONE *        SUNNY     64  61  88 S8        29.92R
CHARITON *     CLOUDY    63  61  94 S6        29.97S
DES MOINES     CLOUDY    66  59  78 S7        29.94R
6HR MIN TEMP:  64; 6HR MAX TEMP:  70;

GRINNELL*      CLOUDY    63  58  86 S6        29.98R
KNOXVILLE *    PTSUNNY   63  59  88 S8        29.96R
MARSHALLTOWN   CLOUDY    64  59  83 S8        29.95R
6HR MIN TEMP:  61; 6HR MAX TEMP:  64;

NEWTON *       MOSUNNY   63  61  94 S6        29.96R
PELLA *        PTSUNNY   63  61  94 S7        29.98R
PERRY *          N/A     66  63  90 SE12      29.92R
$$

IAZ004>006-015-016-023>025-035-036-311300-
   NORTH CENTRAL IOWA

CITY           SKY/WX    TMP DP  RH WIND       PRES   REMARKS
ALGONA *       CLOUDY    64  61  88 S10       29.89R
CLARION *      CLOUDY    64  63  94 S14       29.91R
ESTHERVILLE    CLOUDY    61  61 100 S9        29.88R
6HR MIN TEMP:  59; 6HR MAX TEMP:  65; 6HR PCP:  0.17;

FORT DODGE *   CLOUDY    64  57  77 S8        29.91R
MASON CITY     CLOUDY    62  59  90 SE14      29.93R
6HR MIN TEMP:  61; 6HR MAX TEMP:  65; 6HR PCP:  0.01;

FOREST CITY *  CLOUDY    63  59  88 S10       29.91R
WEBSTER CITY * CLOUDY    64  63  94 S10       29.90R
IOWA FALLS *     N/A     64  60  87 SE10      29.94R
$$

IAZ007>011-017>019-026>030-037>042-050>054-066-311300-
   NORTHEAST IOWA

CITY           SKY/WX    TMP DP  RH WIND       PRES   REMARKS
CEDAR RAPIDS   SUNNY     63  62  97 S5        29.95R
6HR MIN TEMP:  59; 6HR MAX TEMP:  65;

CHARLES CITY * PTSUNNY   63  61  94 S12       29.95R
CLINTON *      PTSUNNY   67  62  84 E8        29.97R
DECORAH *      CLOUDY    63  61  94 SE9G16    29.92S
DUBUQUE        PTSUNNY   65  59  81 SE13      29.96S
6HR MIN TEMP:  61; 6HR MAX TEMP:  65;

MONTICELLO *   SUNNY     64  59  82 E7        29.94S
OELWEIN *      CLOUDY    64  61  88 SE12      29.95R
WATERLOO       CLOUDY    63  58  83 S10       29.94R
6HR MIN TEMP:  61; 6HR MAX TEMP:  63;

$$

IAZ064-065-067-068-078-311300-
   EAST CENTRAL IOWA

CITY           SKY/WX    TMP DP  RH WIND       PRES   REMARKS
DAVENPORT      MOSUNNY   67  62  84 SE5       29.97R
6HR MIN TEMP:  64; 6HR MAX TEMP:  71;

IOWA CITY      SUNNY     65  61  87 S3        29.98R
6HR MIN TEMP:  62; 6HR MAX TEMP:  70;

MT. PLEASANT * PTSUNNY   64  64 100 SW6       29.98R
MUSCATINE *    PTSUNNY   64  63  94 CALM      29.97R
QUAD CITIES    CLOUDY    71  64  78 CALM      29.96R
6HR MIN TEMP:  66; 6HR MAX TEMP:  72;

$$

IAZ062-063-075>077-085>089-095>099-311300-
   SOUTHEAST IOWA

CITY           SKY/WX    TMP DP  RH WIND       PRES   REMARKS
BURLINGTON     SUNNY     67  64  90 SW8       29.97R
6HR MIN TEMP:  62; 6HR MAX TEMP:  68;

FAIRFIELD *      N/A    N/A N/A N/A MISG        N/A
FORT MADISON * LGT RAIN  66  63  88 SW8       29.99R
KEOKUK *       CLOUDY    64  63  94 CALM      29.98R
OSKALOOSA *      N/A     63  60  90 S6        29.99R
OTTUMWA        MOSUNNY   63  60  90 S7        29.98R
6HR MIN TEMP:  59; 6HR MAX TEMP:  65;

WASHINGTON *   MOSUNNY   64 N/A N/A SW6       29.99R
$$

ABBREVIATIONS USED IN REMARKS
   TC - TEMPERATURES IN CELSIUS
  WCI - WIND CHILL INDEX
   HX - HEAT INDEX
  VSB - VISIBILITY
$$




USA.gov is the U.S. government's official web portal to all federal, state and local government web resources and services.